| time (UTC) | temp F | wind direction | speed knots | gust knots | rain 1hr in | rain 24hr in | rain mn in | humidity % | barometer mb |
| 20260505061613 | 57 | 224 | 0.0 | 1.7 | 0.00 | 0.00 | 0.00 | 56 | 1009.2 |
| 20260505060057 | 56 | 258 | 0.0 | 0.0 | 0.00 | 0.00 | 0.00 | 58 | 1009.3 |
| 20260505054555 | 56 | 257 | 0.0 | 0.0 | 0.00 | 0.00 | 0.00 | 57 | 1009.3 |
| 20260505053045 | 58 | 257 | 0.0 | 0.0 | 0.00 | 0.00 | 0.00 | 56 | 1009.3 |
| 20260505051542 | 58 | 217 | 0.0 | 0.0 | 0.00 | 0.00 | 0.00 | 56 | 1009.4 |
| 20260505041531 | 59 | 238 | 0.0 | 0.0 | 0.00 | 0.00 | 0.00 | 54 | 1009.3 |
| 20260505040037 | 60 | 238 | 0.0 | 0.0 | 0.00 | 0.00 | 0.00 | 52 | 1009.3 |
| 20260505034535 | 62 | 238 | 0.0 | 0.0 | 0.00 | 0.00 | 0.00 | 50 | 1009.6 |
| 20260505033022 | 63 | 254 | 0.0 | 0.0 | 0.00 | 0.00 | 0.00 | 48 | 1009.5 |
| 20260505031523 | 63 | 264 | 0.0 | 0.9 | 0.00 | 0.00 | 0.00 | 47 | 1009.6 |
| 20260505030020 | 64 | 219 | 0.0 | 0.9 | 0.00 | 0.00 | 0.00 | 45 | 1009.5 |
| 20260505024519 | 65 | 240 | 0.0 | 1.7 | 0.00 | 0.00 | 0.00 | 44 | 1009.5 |
| 20260505023016 | 66 | 264 | 0.0 | 3.5 | 0.00 | 0.00 | 0.00 | 42 | 1009.4 |
| 20260505021515 | 67 | 259 | 0.0 | 4.3 | 0.00 | 0.00 | 0.00 | 41 | 1009.3 |
| 20260505020015 | 68 | 236 | 0.0 | 6.1 | 0.00 | 0.00 | 0.00 | 39 | 1009.3 |
| 20260505014514 | 68 | 251 | 2.6 | 8.7 | 0.00 | 0.00 | 0.00 | 38 | 1009.2 |
| 20260505013007 | 69 | 226 | 0.0 | 6.1 | 0.00 | 0.00 | 0.00 | 36 | 1009.0 |
| 20260505011506 | 69 | 207 | 1.7 | 7.8 | 0.00 | 0.00 | 0.00 | 35 | 1008.9 |
| 20260505010005 | 70 | 265 | 0.0 | 3.5 | 0.00 | 0.00 | 0.00 | 33 | 1008.7 |
| 20260505004506 | 71 | 272 | 1.7 | 7.0 | 0.00 | 0.00 | 0.00 | 32 | 1008.6 |
| 20260505003059 | 71 | 264 | 1.7 | 6.1 | 0.00 | 0.00 | 0.00 | 31 | 1008.5 |
| 20260505001559 | 72 | 269 | 0.9 | 7.8 | 0.00 | 0.00 | 0.00 | 31 | 1008.5 |
| 20260505000107 | 72 | 255 | 2.6 | 6.1 | 0.00 | 0.00 | 0.00 | 30 | 1008.6 |
| 20260504234605 | 72 | 226 | 3.5 | 9.6 | 0.00 | 0.00 | 0.00 | 30 | 1008.4 |
| 20260504233049 | 73 | 239 | 2.6 | 11.3 | 0.00 | 0.00 | 0.00 | 29 | 1008.1 |
| 20260504231546 | 73 | 240 | 4.3 | 12.2 | 0.00 | 0.00 | 0.00 | 29 | 1008.1 |
| 20260504230044 | 74 | 217 | 7.0 | 13.0 | 0.00 | 0.00 | 0.00 | 27 | 1008.1 |
| 20260504224540 | 74 | 222 | 3.5 | 12.2 | 0.00 | 0.00 | 0.00 | 27 | 1008.0 |
| 20260504223037 | 75 | 226 | 3.5 | 13.9 | 0.00 | 0.00 | 0.00 | 26 | 1007.9 |
| 20260504221532 | 76 | 262 | 4.3 | 11.3 | 0.00 | 0.00 | 0.00 | 25 | 1007.9 |
| 20260504220042 | 76 | 258 | 7.0 | 13.9 | 0.00 | 0.00 | 0.00 | 25 | 1008.1 |
| 20260504214524 | 76 | 159 | 5.2 | 12.2 | 0.00 | 0.00 | 0.00 | 24 | 1008.2 |
| 20260504213020 | 76 | 246 | 5.2 | 13.9 | 0.00 | 0.00 | 0.00 | 24 | 1008.0 |
| 20260504211517 | 75 | 228 | 4.3 | 13.0 | 0.00 | 0.00 | 0.00 | 24 | 1008.1 |
| 20260504210016 | 76 | 222 | 7.8 | 13.0 | 0.00 | 0.00 | 0.00 | 22 | 1008.1 |
| 20260504204516 | 77 | 200 | 7.0 | 14.8 | 0.00 | 0.00 | 0.00 | 21 | 1008.1 |
| 20260504203012 | 76 | 217 | 4.3 | 10.4 | 0.00 | 0.00 | 0.00 | 22 | 1008.0 |
| 20260504201509 | 77 | 186 | 4.3 | 11.3 | 0.00 | 0.00 | 0.00 | 20 | 1008.2 |
| 20260504200007 | 76 | 244 | 5.2 | 12.2 | 0.00 | 0.00 | 0.00 | 21 | 1008.3 |
| 20260504194502 | 77 | 266 | 4.3 | 10.4 | 0.00 | 0.00 | 0.00 | 21 | 1008.6 |
| 20260504193113 | 76 | 253 | 5.2 | 12.2 | 0.00 | 0.00 | 0.00 | 21 | 1009.0 |
| 20260504191555 | 77 | 240 | 4.3 | 10.4 | 0.00 | 0.00 | 0.00 | 20 | 1009.0 |
| 20260504190056 | 77 | 255 | 2.6 | 8.7 | 0.00 | 0.00 | 0.00 | 23 | 1009.3 |
| 20260504184546 | 76 | 205 | 2.6 | 12.2 | 0.00 | 0.00 | 0.00 | 21 | 1009.6 |
| 20260504183054 | 75 | 291 | 4.3 | 9.6 | 0.00 | 0.00 | 0.00 | 22 | 1009.9 |
| 20260504181538 | 74 | 165 | 2.6 | 15.6 | 0.00 | 0.00 | 0.00 | 21 | 1010.1 |
| 20260504180054 | 74 | 226 | 4.3 | 12.2 | 0.00 | 0.00 | 0.00 | 22 | 1010.4 |
| 20260504174533 | 74 | 302 | 4.3 | 10.4 | 0.00 | 0.00 | 0.00 | 23 | 1010.6 |
| 20260504173027 | 73 | 192 | 6.1 | 11.3 | 0.00 | 0.00 | 0.00 | 22 | 1010.9 |
| 20260504171524 | 73 | 150 | 3.5 | 13.0 | 0.00 | 0.00 | 0.00 | 23 | 1011.0 |
| 20260504081500 | 46 | 153 | 0.0 | 0.0 | 0.00 | 0.00 | 0.00 | 57 | 1014.0 |